Powrót do katalogu

STARLINK-37295

AktywnyŁącznośćVLEO
NORAD 68552·PAYLOAD·🇺🇸 United States

Wystrzelony Apr 2, 2026 z Cape Canaveral Space Force Station

Loading…

Następne Przeloty (najbliższe 24 godziny)

TLE

ŚwieżeSource: CelesTrak SupGP

Epoka: Sep 15, 2026, 03:38 UTC

1 68552C 26070L   26258.15187500 -.00049263  00000+0 -14557-2 0  2588
2 68552  53.1576 198.8020 0001337  86.3779 330.5465 15.34410692    19

Śledź STARLINK-37295 w czasie rzeczywistym z AllMySat

Download on the App Store